{"data":{"norad_id":49303,"intl_designator":"2021-090AA","name":"ONEWEB-0377","alt_names":[],"object_type":"PAYLOAD","status":"ACTIVE","operator":null,"country":"UK","launch_date":"2021-10-14","launch_site_code":"VOSTO","launch_vehicle":null,"mission":null,"orbit_class":"UNKNOWN","rcs_meters":null,"size_class":null,"mass_kg":null,"dimensions":null,"purposes":["comms"],"wikipedia_slug":null,"has_3d_model":false,"image_url":null,"decayed_at":null,"tle_current":{"epoch":"2026-09-19T22:25:15.509856Z","epoch_age_seconds":76025,"freshness":"FRESH","line1":"1 49303U 21090AA  26262.93420729  .00000096  00000+0  20511-3 0  9991","line2":"2 49303  87.9144 255.5342 0002247  92.1104 268.0286 13.20772892243026","mean_motion":13.20772892,"eccentricity":0.0002247,"inclination_deg":87.9144,"raan_deg":255.5342,"arg_perigee_deg":92.1104,"mean_anomaly_deg":268.0286,"bstar":0.00020511,"rev_number":24302,"period_min":109.0270710977,"perigee_km":1180.0705441836,"apogee_km":1183.4679660546,"semimajor_km":7559.9062551191,"source":"CELESTRAK","updated_at":"2026-09-20T09:00:44.673820Z"}}}